This demonstration page uses our WeatherBlox Daily Observations layout. Learn more.

Left ArrowRight Arrow

38.83388, -104.82136

Hourly Observations for November 16, 2019

Temp ( °F °C ) Dew Point ( °F °C ) Humidity (%) Winds ( mph kmh ) Pressure ( in mb ) Visibility ( mi km ) Precip ( " mm )
12:58 am 00:58 Mostly Cloudy 52 11.1 14 -10.2 22 22 WSW 5 7 29.62 1003 10 16 0.00 0.00
1:58 am 01:58 Cloudy 53 11.4 15 -9.2 23 23 WNW 6 9 29.62 1003 10 16 0.00 0.00
2:56 am 02:56 Cloudy 53 11.6 13 -10.5 20 20 SW 6 9 29.61 1003 10 16 0.00 0.00
3:58 am 03:58 Mostly Cloudy 51 10.5 13 -10.4 22 22 Calm 29.63 1004 10 16 0.00 0.00
4:58 am 04:58 Mostly Cloudy 53 11.4 12 -11.1 20 20 Calm 29.63 1004 10 16 0.00 0.00
5:58 am 05:58 Mostly Cloudy 50 10.2 13 -10.4 23 23 Calm 29.63 1004 10 16 0.00 0.00
6:58 am 06:58 Mostly Cloudy 53 11.4 13 -10.7 20 20 SSW 8 13 29.64 1004 10 16 0.00 0.00
7:58 am 07:58 Mostly Cloudy 53 11.8 13 -10.8 20 20 S 9 15 29.64 1004 10 16 0.00 0.00
8:58 am 08:58 Mostly Cloudy 53 11.4 14 -9.9 22 22 S 5 7 29.66 1005 10 16 0.00 0.00
9:58 am 09:58 Partly Cloudy 56 13.4 16 -8.9 20 20 Calm 29.65 1004 10 16 0.00 0.00
10:58 am 10:58 Mostly Sunny 57 14 12 -11 17 17 Calm 29.64 1004 10 16 0.00 0.00
11:58 am 11:58 Mostly Sunny 62 16.4 15 -9.2 16 16 ESE 6 9 29.58 1002 10 16 0.00 0.00
12:58 pm 12:58 Mostly Cloudy 61 15.9 15 -9.7 16 16 Calm 29.54 1001 10 16 0.00 0.00
1:58 pm 13:58 Mostly Cloudy 57 14.1 15 -9.2 19 19 SSE 8 13 29.54 1000 10 16 0.00 0.00
2:58 pm 14:58 Mostly Cloudy 57 14 14 -9.8 18 18 S 5 7 29.54 1000 10 16 0.00 0.00
3:58 pm 15:58 Mostly Cloudy 56 13.4 16 -8.7 21 21 Calm 29.57 1002 10 16 0.00 0.00
4:58 pm 16:58 Mostly Cloudy 53 11.6 20 -6.8 27 27 N 12 19 29.62 1003 10 16 0.00 0.00
5:58 pm 17:58 Cloudy 50 10.1 23 -4.8 35 35 NNW 10 17 29.71 1006 10 16 0.00 0.00
5:59 pm 17:59 Cloudy with Light Rain 50 10 25 -4 37 37 NW 13 20 29.71 1006 10 16 0.00 0.00
6:01 pm 18:01 Cloudy with Light Rain 50 10 30 -1 47 47 N 15 24 29.72 1006 10 16 0.00 0.00
6:04 pm 18:04 Cloudy with Light Rain 48 9 32 0 54 54 NE 15 24 29.72 1006 9 14 0.00 0.00
6:09 pm 18:09 Cloudy with Rain 46 8 34 1 62 62 W 5 7 29.72 1006 8 13 0.00 0.00
6:25 pm 18:25 Mostly Cloudy 46 8 28 -2 50 50 N 12 19 29.72 1006 10 16 0.00 0.00
6:40 pm 18:40 Mostly Cloudy 46 8 30 -1 53 53 NW 20 31 29.74 1007 10 16 0.00 0.00
6:44 pm 18:44 Mostly Cloudy with Light Showers 46 8 30 -1 53 53 NW 17 28 29.74 1007 10 16 0.00 0.00
6:58 pm 18:58 Windy with Rain Showers Likely 44 6.8 32 -0.2 61 61 NNW 25 41 29.77 1008 10 16 0.00 0.00
6:59 pm 18:59 Windy with Rain Showers Likely 43 6 32 0 66 66 N 23 37 29.77 1008 10 16 0.00 0.00
7:04 pm 19:04 Windy with Rain Showers Likely 41 5 32 0 70 70 NNW 21 33 29.80 1009 10 16 0.00 0.00
7:19 pm 19:19 Cloudy with Showers 37 3 34 1 87 87 NNW 17 28 29.83 1010 10 16 0.00 0.00
7:58 pm 19:58 Mostly Cloudy with Light Showers 35 1.9 33 0.3 89 89 NW 18 30 29.82 1010 10 16 0.01 0.25
8:18 pm 20:18 Windy with Rain Showers Likely 36 2 32 0 87 87 NW 20 31 29.85 1011 10 16 0.00 0.00
8:28 pm 20:28 Mostly Cloudy with Light Showers 36 2 32 0 87 87 NNW 17 28 29.85 1011 10 16 0.00 0.00
8:31 pm 20:31 Mostly Cloudy 36 2 32 0 87 87 NW 18 30 29.85 1011 10 16 0.00 0.00
8:35 pm 20:35 Mostly Cloudy with Light Showers 34 1 30 -1 87 87 NNW 18 30 29.85 1011 10 16 0.00 0.00
8:58 pm 20:58 Windy with Rain Showers Likely 35 1.5 29 -1.6 80 80 NW 20 31 29.86 1011 10 16 0.00 0.00
9:03 pm 21:03 Windy with Rain Showers Likely 36 2 28 -2 75 75 NW 20 31 29.86 1011 10 16 0.00 0.00
9:58 pm 21:58 Windy with Rain Showers Likely 34 0.9 26 -3.2 74 74 NNW 20 31 29.87 1012 10 16 0.00 0.00
10:34 pm 22:34 Mostly Cloudy 34 1 27 -3 75 75 NNW 14 22 29.83 1010 10 16 0.00 0.00
10:39 pm 22:39 Partly Cloudy 34 1 27 -3 75 75 N 14 22 29.83 1010 10 16 0.00 0.00
10:58 pm 22:58 Partly Cloudy 33 0.3 26 -3.1 78 78 N 15 24 29.85 1011 10 16 0.00 0.00
11:58 pm 23:58 Clear 33 0.5 26 -3.3 76 76 N 16 26 29.80 1009 10 16 0.00 0.00

Powered by AerisWeather